TimeCDT,TemperatureF,Dew PointF,Humidity,Sea Level PressureIn,VisibilityMPH,Wind Direction,Wind SpeedMPH,Gust SpeedMPH,PrecipitationIn,Events,Conditions,WindDirDegrees,DateUTC
12:53 AM,48.0,37.0,66,30.05,10.0,South,3.5,-,N/A,,Clear,180,2013-03-15 05:53:00
1:53 AM,46.9,37.9,71,30.03,10.0,SSE,3.5,-,N/A,,Clear,150,2013-03-15 06:53:00
2:53 AM,46.9,37.0,68,30.01,10.0,Calm,Calm,-,N/A,,Clear,0,2013-03-15 07:53:00
3:53 AM,43.0,36.0,76,29.98,10.0,Calm,Calm,-,N/A,,Clear,0,2013-03-15 08:53:00
4:53 AM,39.0,34.0,82,29.95,10.0,SSW,5.8,-,N/A,,Clear,200,2013-03-15 09:53:00
5:53 AM,41.0,36.0,82,29.93,10.0,South,4.6,-,N/A,,Clear,170,2013-03-15 10:53:00
6:53 AM,39.9,35.1,83,29.91,10.0,South,3.5,-,N/A,,Clear,170,2013-03-15 11:53:00
7:53 AM,43.0,37.0,80,29.89,10.0,SSE,4.6,-,N/A,,Clear,160,2013-03-15 12:53:00
8:53 AM,48.9,41.0,74,29.89,10.0,South,4.6,-,N/A,,Clear,190,2013-03-15 13:53:00
9:53 AM,59.0,41.0,51,29.88,10.0,SW,8.1,-,N/A,,Clear,220,2013-03-15 14:53:00
10:53 AM,68.0,41.0,37,29.85,10.0,SSW,9.2,-,N/A,,Clear,210,2013-03-15 15:53:00
11:53 AM,75.9,36.0,23,29.83,10.0,West,10.4,-,N/A,,Clear,280,2013-03-15 16:53:00
12:53 PM,79.0,37.0,22,29.81,10.0,NW,9.2,-,N/A,,Clear,310,2013-03-15 17:53:00
1:53 PM,82.9,37.9,20,29.76,10.0,SSW,15.0,-,N/A,,Clear,210,2013-03-15 18:53:00
2:53 PM,86.0,33.1,15,29.70,10.0,SW,21.9,25.3,N/A,,Clear,220,2013-03-15 19:53:00
3:53 PM,86.0,35.1,16,29.68,10.0,SW,17.3,24.2,N/A,,Clear,220,2013-03-15 20:53:00
4:53 PM,84.9,35.1,17,29.67,10.0,WSW,17.3,-,N/A,,Clear,240,2013-03-15 21:53:00
5:53 PM,81.0,37.9,21,29.66,10.0,WSW,6.9,-,N/A,,Clear,240,2013-03-15 22:53:00
6:53 PM,73.9,41.0,30,29.65,10.0,SW,6.9,-,N/A,,Clear,230,2013-03-15 23:53:00
7:53 PM,64.9,39.9,40,29.66,10.0,SSW,6.9,-,N/A,,Clear,210,2013-03-16 00:53:00
8:53 PM,64.0,41.0,43,29.67,10.0,Calm,Calm,-,N/A,,Clear,0,2013-03-16 01:53:00
9:53 PM,55.0,42.1,62,29.68,10.0,South,8.1,-,N/A,,Clear,190,2013-03-16 02:53:00
10:53 PM,55.9,42.1,60,29.70,10.0,NNE,3.5,-,N/A,,Clear,20,2013-03-16 03:53:00
11:53 PM,54.0,41.0,62,29.72,10.0,North,13.8,19.6,N/A,,Clear,360,2013-03-16 04:53:00